Simultaneous Nadir Overpasses (SNOs) Predictions

Prediction of SNOs between GOES-14 and AQUA Satellite Orbit:

Table of predicted SNOs for the next 14.0 days since TLE Epoch: 6/29/2020
Index Date Time (GOES-14) GOES-14 Lat,Lon AQUA Lat,Lon Distance(km) Time Diff (sec)
1 06/30/2020 20:32:52 0.17,-104.42 0.28,-104.00 48.23 80
2 07/02/2020 20:20:40 0.17,-104.43 0.90,-101.04 385.53 80
3 07/03/2020 08:39:15 -0.20,-104.23 0.24,-106.19 222.82 80
4 07/05/2020 08:29:44 -0.20,-104.24 -0.44,-103.24 114.55 80
5 07/05/2020 20:48:28 0.23,-104.44 -0.64,-108.43 454.59 80
6 07/07/2020 08:17:32 -0.20,-104.25 -1.06,-100.28 452.26 80
7 07/07/2020 20:36:16 0.23,-104.45 -0.02,-105.47 116.72 80
8 07/09/2020 20:26:44 0.22,-104.47 0.61,-102.51 221.57 80
9 07/10/2020 08:45:20 -0.25,-104.28 0.48,-107.67 386.30 80
10 07/12/2020 08:33:08 -0.25,-104.30 -0.15,-104.71 47.75 80
